Location: T. Spence Memorial Observatory
(32.7356°N, 82.2098°W)
Time: 18:25:34
(UTC-04:00)

Cosmos 2219 - Visible Passes

Search period start: 01 July 2016 00:00
Search period end: 11 July 2016 00:00
Orbit: 833 x 861 km, 71.1° (Epoch: 01 July)

Date Brightness Start Highest point End Pass type
(mag) Time Alt. Az. Time Alt. Az. Time Alt. Az.
01 Jul 3.6 21:40:37 10° SSW 21:46:20 70° WNW 21:52:05 10° NNE visible
02 Jul 3.6 21:27:10 10° SSW 21:32:53 72° WNW 21:38:39 10° NNE visible
03 Jul 3.6 21:13:43 10° SSW 21:19:27 74° WNW 21:25:13 10° NNE visible
04 Jul 3.6 21:00:16 10° SSW 21:06:01 76° WNW 21:11:46 10° NNE visible
06 Jul 6.0 05:47:04 10° N 05:51:30 23° ENE 05:55:55 10° ESE visible
07 Jul 6.0 05:33:40 10° N 05:38:04 23° ENE 05:42:25 10° ESE visible
08 Jul 6.0 05:20:17 10° N 05:24:36 22° ENE 05:28:54 10° ESE visible
08 Jul 7.0 21:56:43 10° WNW 21:57:14 10° NW 21:57:43 10° NW visible
09 Jul 5.9 05:06:53 10° N 05:11:10 22° ENE 05:15:23 10° ESE visible
09 Jul 7.0 21:42:47 10° WNW 21:43:46 10° NW 21:44:45 10° NW visible
10 Jul 5.9 04:53:30 10° N 04:57:42 21° ENE 05:01:52 10° ESE visible
10 Jul 7.0 21:29:00 10° WNW 21:30:18 11° NW 21:31:37 10° NW visible
